Location: Madrid
(40.4000°N, 3.6830°W)
Time: 12:31:57
(UTC+01:00)

ISS - Pass Details

Date: 20 October 2020
Orbit: 417 x 420 km, 51.6° (Epoch: 29 October)

Event Time Altitude Azimuth Distance (km) Brightness Sun altitude
Rises 07:33:43 0° 186° (S) 2,342 0.0 -11.7°
Reaches altitude 10° 07:36:45 10° 156° (SSE) 1,485 -0.6 -11.1°
Maximum altitude 07:38:14 12° 129° (SE) 1,346 -0.3 -10.8°
Drops below altitude 10° 07:39:44 10° 102° (ESE) 1,490 0.6 -10.5°
Sets 07:42:47 0° 72° (ENE) 2,359 1.4 -10.0°
